Simultaneous Nadir Overpasses (SNOs) Predictions

Prediction of SNOs between AQUA and METOP-A Satellite Orbit:

Table of predicted SNOs for the next 14.0 days since TLE Epoch: 8/24/2013
Index Date (AQUA) Time (AQUA) Lat,Lon (AQUA) SZA (AQUA ) Date (METOP-A) Time (METOP-A) Lat,Lon (METOP-A) SZA (METOP-A ) Distance(km) Time Diff (sec)
1 08/25/2013 12:19:28 73.83, -10.60 63.25 08/25/2013 12:18:45 73.85, -10.59 63.27 1.87 43
2 08/25/2013 13:08:55 -73.90, 156.88 116.67 08/25/2013 13:09:25 -73.92, 156.92 116.65 2.42 30
3 08/28/2013 07:53:41 73.87, 55.76 64.27 08/28/2013 07:53:08 73.84, 55.80 64.24 3.32 33
4 08/28/2013 08:43:08 -73.94,-136.75 115.65 08/28/2013 08:43:48 -73.92,-136.69 115.68 2.93 40
5 08/31/2013 02:38:11 -73.11, -43.83 115.55 08/31/2013 02:37:06 -73.08, -46.85 115.47 97.73 65
6 08/31/2013 03:27:52 73.83, 122.30 65.22 08/31/2013 03:27:31 73.83, 122.19 65.23 3.38 21
7 08/31/2013 04:17:19 -73.89, -70.20 114.70 08/31/2013 04:18:11 -73.91, -70.30 114.69 3.41 52
8 09/02/2013 22:12:30 -73.56, 21.69 114.06 09/02/2013 22:11:19 -73.52, 20.53 114.06 36.65 71
9 09/02/2013 23:02:03 73.87,-171.34 66.28 09/02/2013 23:01:52 73.87,-171.32 66.28 0.71 11
10 09/02/2013 23:51:30 -73.93, -3.83 113.65 09/02/2013 23:52:32 -73.95, -3.80 113.64 2.18 62
11 09/05/2013 17:46:45 -73.78, 87.67 112.80 09/05/2013 17:45:36 -73.80, 87.60 112.76 3.32 69
12 09/05/2013 18:36:14 73.88,-104.92 67.33 09/05/2013 18:36:14 73.90,-104.83 67.35 3.29 0




NCC Satellite Simultaneous Nadir Overpasses (SNOs) Prediction Service
